RAPTOR4

基本信息
目录编号:
58956
目录名称:
RAPTOR4
国际标识:
2024-028B
轨道中心:
EARTH
卫星名称:
RAPTOR4
卫星全名:
--
卫星状态:
在轨 (已飞行749 天)
发射日期:
2024-02-14 UTC
国别 :
美国 (US)
星等 :
--
轨道信息
数据来源 国际轨道数据 AOE轨道数据
星历时间 2026-03-03T23:42:44+0800
18小时前
查看轨道信息
2026-03-04T07:00:00+0800
10小时前
查看轨道信息
半长轴 7377.132km 7377.132km
偏心率 0.0014997 0.0015132
轨道倾角 39.989° 39.990°
近地点辐角 348.948° 351.132°
升交点赤经 169.106° 167.712°
平近点角 11.093° 68.472°
近地点 987.931km 987.831km
远地点 1010.059km 1010.159km
周期 105.097分钟 105.097分钟
每日圈数 13.701605 13.701606
详细信息
使用方式:
暂无
2D轨道图
3D轨道图
轨道高度分析图
轨道倾角分析图
轨道综合分析图
查看轨道综合分析图